Location: San Gennaro Vesuviano
(40.8833°N, 14.5333°E)
Time: 09:57:27
(UTC+00:00)

Cosmos 1634 Rocket - Pass Details

Date: 22 April 2021
Orbit: 958 x 993 km, 82.9° (Epoch: 10 May)

Event Time Altitude Azimuth Distance (km) Brightness Sun altitude
Rises 18:07:48 0° 168° (SSE) 3,679 6.7 -4.2°
Reaches altitude 10° 18:10:24 10° 162° (SSE) 2,731 6.0 -4.7°
Maximum altitude 18:16:21 48° 90° (E) 1,264 4.3 -5.7°
Drops below altitude 10° 18:22:17 10° 19° (NNE) 2,725 6.4 -6.7°
Sets 18:24:52 0° 14° (NNE) 3,671 7.1 -7.2°
